Starlink 2732

operational
NORAD ID: 48646 Int'l Des: 2021-044 Owner: SPXS Country: US Constellation: starlink
LEOCIRCULARSTARLINK_TYPE

Über Starlink 2732

Beschreibung wird geladen...

Live-Position

3D-Globus wird geladen...

Nächste Überflüge

Höhenverlauf

Altitude vs Time

uPlot chart will show altitude changes over time

Zweizeiliger Elementsatz

1 48646U 21044J 25258.54586467 .00004794 00000-0 34027-3 0 9999
2 48646 53.0607 187.8704 0000870 90.0311 270.0777 15.06424010237314
Epoch: 15. Sept. 2025 • Age: 12 hours

Aktueller Status

Höhe 565.5 km
Geschwindigkeit 7.58 km/s
Subsatellitenpunkt -51.40°S, 98.33°E
Startdatum 26. Mai 2021
Alter 4.3 years
Typ internet

Technische Details

Klassifizierung Payload
Masse 260.00 kg
Trockenmasse 248.00 kg
Gesamtmasse 260.00 kg
Länge 0.20 m
Durchmesser 2.80 m
Spannweite 9.00 m
Form Box + pan
Hersteller SPXS
Bus-Typ Starlink
Phasenstatus In Orbit
Besitzer/Staat SPXS/US

Große Konstellationen

Loading constellations...